Bend, OR

2:56 PM PDT on September 19, 2019 (GMT -0700)
Bend Municipal

Weather History for KBDN - August, 2019

Change the Weather History Date:

Friday, August 23, 2019

  Actual Average (WUND) Record (WUND)
Temperature  
Mean Temperature 67 °F -  
Max Temperature 86 °F - - (-1)
Min Temperature 48 °F - - (-1)
Cooling Degree Days 2    
Growing Degree Days 17 (Base 50)    
Moisture  
Dew Point 40 °F    
Average Humidity 43    
Maximum Humidity 76    
Minimum Humidity 14    
Precipitation  
Precipitation 0.00 in - - ()
Sea Level Pressure  
Sea Level Pressure 29.98 in    
Wind  
Wind Speed 4 mph (SSW)    
Max Wind Speed 8 mph    
Max Gust Speed 12 mph    
Visibility 10 miles    
Events      
Averages and records for this station are not official NWS values.
T = Trace of Precipitation, MM = Missing Value Source: NWS Daily Summary

Daily Weather History Graph

Daily Weather History Graph

Search for Another Location

Airport or City:

Astronomy

Aug. 23, 2019 Rise Set
Actual Time 6:17 AM PDT 7:56 PM PDT
Civil Twilight 5:46 AM PDT 8:26 PM PDT
Nautical Twilight 5:09 AM PDT 9:03 PM PDT
Astronomical Twilight 4:29 AM PDT 9:43 PM PDT
Moon No Moon Rise 2:16 PM PDT (8/23)
Length of Visible Light 14h 40m
Length of Day
13h 39m
Waning Gibbous, 48% of the Moon is Illuminated
Aug 23
Waning Gibbous
Aug 30
New
Sep 5
First Quarter
Sep 13
Full
Sep 21
Last Quarter

Hourly Weather History & Observations

Time (PDT) Temp. Dew Point Humidity Pressure Visibility Wind Dir Wind Speed Gust Speed Precip Events Conditions
12:15 AM 55.4 °F 42.8 °F 63% 30.03 in 10.0 mi SW 6.9 mph - N/A   Clear
12:35 AM 53.6 °F 42.8 °F 67% 30.03 in 10.0 mi SSW 4.6 mph - N/A   Clear
12:55 AM 53.6 °F 42.8 °F 67% 30.03 in 10.0 mi Calm Calm - N/A   Clear
1:15 AM 53.6 °F 42.8 °F 67% 30.03 in 10.0 mi Calm Calm - N/A   Clear
1:55 AM 51.8 °F 42.8 °F 71% 30.03 in 10.0 mi SSW 4.6 mph - N/A   Clear
2:15 AM 51.8 °F 42.8 °F 71% 30.03 in 10.0 mi South 5.8 mph - N/A   Clear
2:35 AM 51.8 °F 41.0 °F 67% 30.02 in 10.0 mi SSW 6.9 mph - N/A   Clear
3:15 AM 50.0 °F 42.8 °F 76% 30.01 in 10.0 mi SW 4.6 mph - N/A   Clear
3:35 AM 50.0 °F 41.0 °F 71% 30.02 in 10.0 mi Calm Calm - N/A   Clear
3:55 AM 50.0 °F 41.0 °F 71% 30.02 in 10.0 mi SSW 5.8 mph - N/A   Clear
4:15 AM 50.0 °F 41.0 °F 71% 30.02 in 10.0 mi South 4.6 mph - N/A   Clear
4:35 AM 50.0 °F 41.0 °F 71% 30.01 in 10.0 mi SSW 5.8 mph - N/A   Clear
4:55 AM 50.0 °F 41.0 °F 71% 30.01 in 10.0 mi SSW 8.1 mph - N/A   Clear
5:15 AM 50.0 °F 41.0 °F 71% 30.01 in 10.0 mi SSW 3.5 mph - N/A   Clear
5:35 AM 50.0 °F 41.0 °F 71% 30.01 in 10.0 mi SSW 5.8 mph - N/A   Clear
5:55 AM 50.0 °F 41.0 °F 71% 30.01 in 10.0 mi SSW 5.8 mph - N/A   Clear
6:15 AM 48.2 °F 41.0 °F 76% 30.01 in 10.0 mi Calm Calm - N/A   Clear
6:35 AM 48.2 °F 41.0 °F 76% 30.01 in 10.0 mi SSE 4.6 mph - N/A   Clear
6:55 AM 48.2 °F 41.0 °F 76% 30.01 in 10.0 mi SSE 3.5 mph - N/A   Clear
7:15 AM 50.0 °F 41.0 °F 71% 30.02 in 10.0 mi SSE 4.6 mph - N/A   Clear
7:35 AM 50.0 °F 41.0 °F 71% 30.03 in 10.0 mi Calm Calm - N/A   Clear
7:55 AM 53.6 °F 41.0 °F 62% 30.03 in 10.0 mi Calm Calm - N/A   Clear
8:15 AM 59.0 °F 41.0 °F 51% 30.04 in 10.0 mi Calm Calm - N/A   Clear
8:35 AM 59.0 °F 42.8 °F 55% 30.03 in 10.0 mi Calm Calm - N/A   Clear
8:55 AM 60.8 °F 44.6 °F 55% 30.03 in 10.0 mi Calm Calm - N/A   Clear
9:15 AM 64.4 °F 42.8 °F 45% 30.03 in 10.0 mi Calm Calm - N/A   Clear
9:35 AM 64.4 °F 39.2 °F 40% 30.03 in 10.0 mi East 3.5 mph - N/A   Clear
9:55 AM 68.0 °F 41.0 °F 37% 30.03 in 10.0 mi Calm Calm - N/A   Clear
10:15 AM 68.0 °F 41.0 °F 37% 30.03 in 10.0 mi Calm Calm - N/A   Clear
10:35 AM 69.8 °F 42.8 °F 38% 30.01 in 10.0 mi SSE 4.6 mph - N/A   Clear
10:55 AM 71.6 °F 41.0 °F 33% 30.01 in 10.0 mi Variable 4.6 mph - N/A   Clear
11:15 AM 73.4 °F 41.0 °F 31% 30.01 in 10.0 mi Calm Calm - N/A   Clear
11:35 AM 73.4 °F 39.2 °F 29% 30.00 in 10.0 mi Calm Calm - N/A   Clear
11:55 AM 75.2 °F 39.2 °F 27% 29.99 in 10.0 mi Calm Calm - N/A   Clear
12:15 PM 75.2 °F 41.0 °F 29% 29.98 in 10.0 mi Variable 3.5 mph - N/A   Clear
12:35 PM 77.0 °F 39.2 °F 26% 29.98 in 10.0 mi Calm Calm - N/A   Clear
12:55 PM 78.8 °F 39.2 °F 24% 29.97 in 10.0 mi Variable 3.5 mph - N/A   Clear
1:15 PM 78.8 °F 37.4 °F 23% 29.97 in 10.0 mi Variable 4.6 mph - N/A   Clear
1:35 PM 80.6 °F 37.4 °F 21% 29.96 in 10.0 mi SE 4.6 mph - N/A   Clear
1:55 PM 82.4 °F 37.4 °F 20% 29.96 in 10.0 mi SW 4.6 mph - N/A   Clear
2:15 PM 82.4 °F 35.6 °F 19% 29.95 in 10.0 mi Variable 5.8 mph 11.5 mph N/A   Clear
2:35 PM 82.4 °F 33.8 °F 17% 29.95 in 10.0 mi Calm Calm - N/A   Clear
2:55 PM 86.0 °F 35.6 °F 17% 29.94 in 10.0 mi Variable 6.9 mph - N/A   Clear
3:15 PM 84.2 °F 33.8 °F 16% 29.93 in 10.0 mi Calm Calm - N/A   Clear
3:35 PM 86.0 °F 32.0 °F 14% 29.93 in 10.0 mi Variable 5.8 mph - N/A   Clear
3:55 PM 84.2 °F 32.0 °F 15% 29.92 in 10.0 mi Variable 5.8 mph 11.5 mph N/A   Clear
4:15 PM 86.0 °F 32.0 °F 14% 29.92 in 10.0 mi North 6.9 mph - N/A   Clear
4:35 PM 86.0 °F 32.0 °F 14% 29.91 in 10.0 mi North 5.8 mph - N/A   Clear
4:55 PM 86.0 °F 32.0 °F 14% 29.91 in 10.0 mi Calm Calm - N/A   Clear
5:15 PM 84.2 °F 32.0 °F 15% 29.91 in 10.0 mi Calm Calm - N/A   Clear
5:55 PM 86.0 °F 33.8 °F 15% 29.91 in 10.0 mi Variable 4.6 mph - N/A   Clear
6:15 PM 84.2 °F 33.8 °F 16% 29.91 in 10.0 mi NE 8.1 mph - N/A   Clear
6:35 PM 84.2 °F 33.8 °F 16% 29.91 in 10.0 mi NE 8.1 mph - N/A   Clear
6:55 PM 84.2 °F 33.8 °F 16% 29.92 in 10.0 mi ENE 5.8 mph - N/A   Clear
7:15 PM 82.4 °F 35.6 °F 19% 29.92 in 10.0 mi NE 5.8 mph - N/A   Clear
7:35 PM 80.6 °F 35.6 °F 20% 29.92 in 10.0 mi NE 3.5 mph - N/A   Clear
7:55 PM 78.8 °F 35.6 °F 21% 29.93 in 10.0 mi Calm Calm - N/A   Clear
8:15 PM 77.0 °F 37.4 °F 24% 29.93 in - Calm Calm - N/A   Clear
8:35 PM 73.4 °F 42.8 °F 33% 29.94 in 10.0 mi Calm Calm - N/A   Clear
9:15 PM 68.0 °F 44.6 °F 43% 29.94 in 10.0 mi West 3.5 mph - N/A   Clear
9:35 PM 68.0 °F 46.4 °F 46% 29.94 in 10.0 mi West 3.5 mph - N/A   Clear
9:55 PM 68.0 °F 44.6 °F 43% 29.94 in 10.0 mi Calm Calm - N/A   Clear
10:15 PM 66.2 °F 46.4 °F 49% 29.94 in 10.0 mi SW 3.5 mph - N/A   Clear
10:35 PM 66.2 °F 46.4 °F 49% 29.94 in 10.0 mi Calm Calm - N/A   Clear
10:55 PM 64.4 °F 46.4 °F 52% 29.94 in 10.0 mi SW 5.8 mph - N/A   Clear
11:15 PM 64.4 °F 46.4 °F 52% 29.94 in 10.0 mi SSW 3.5 mph - N/A   Clear
11:35 PM 64.4 °F 46.4 °F 52% 29.95 in 10.0 mi SW 3.5 mph - N/A   Clear
11:55 PM 64.4 °F 46.4 °F 52% 29.95 in 10.0 mi West 3.5 mph - N/A   Clear